MTN324 KDEN-KGPI

Flight info

Callsign MTN324
Flight time 1h 43m
Altitude 34000
Route DDRTH1 DDRTH SKOTT
Aircraft B738/M-SDE2E3FGHIRWXY/LB1

Departure

Time 2026-04-21 01:57
Airport Denver International Airport (KDEN)

Arrival

Time 2026-04-21 03:41
Airport Glacier Park International Airport (KGPI)
Time Latitude Longitude Altitude Speed Heading
2026-04-21 01:33 39.85802 -104.66875 5365 ft 0 kts 360°
2026-04-21 01:47 39.85798 -104.66875 5365 ft 3 kts 360°
2026-04-21 01:48 39.85772 -104.66875 5364 ft 4 kts 360°
2026-04-21 01:48 39.85745 -104.66875 5363 ft 4 kts 360°
2026-04-21 01:48 39.85734 -104.66875 5362 ft 0 kts 360°
2026-04-21 01:51 39.85735 -104.66875 5362 ft 0 kts 360°
2026-04-21 01:51 39.85746 -104.66887 5363 ft 5 kts 306°
2026-04-21 01:51 39.85719 -104.66935 5365 ft 11 kts 216°
2026-04-21 01:52 39.85663 -104.67038 5365 ft 18 kts 264°
2026-04-21 01:52 39.85665 -104.67448 5365 ft 23 kts 270°
2026-04-21 01:52 39.85666 -104.67653 5363 ft 22 kts 270°
2026-04-21 01:53 39.85668 -104.67852 5365 ft 22 kts 270°
2026-04-21 01:53 39.85669 -104.68045 5365 ft 21 kts 270°
2026-04-21 01:53 39.85684 -104.68204 5364 ft 17 kts 281°
2026-04-21 01:53 39.85686 -104.68345 5365 ft 14 kts 257°
2026-04-21 01:54 39.85609 -104.68396 5364 ft 14 kts 181°
2026-04-21 01:54 39.85497 -104.68397 5364 ft 19 kts 180°
2026-04-21 01:54 39.85346 -104.68398 5361 ft 24 kts 180°
2026-04-21 01:54 39.85227 -104.68414 5363 ft 15 kts 211°
2026-04-21 01:55 39.85204 -104.68535 5365 ft 15 kts 269°
2026-04-21 01:55 39.85202 -104.68690 5363 ft 20 kts 269°
2026-04-21 01:55 39.85199 -104.68886 5364 ft 23 kts 268°
2026-04-21 01:55 39.85195 -104.69101 5365 ft 24 kts 269°
2026-04-21 01:56 39.85199 -104.69325 5365 ft 24 kts 271°
2026-04-21 01:56 39.85202 -104.69528 5365 ft 20 kts 271°
2026-04-21 01:56 39.85235 -104.69651 5365 ft 14 kts 342°
2026-04-21 01:56 39.85385 -104.69655 5364 ft 42 kts
2026-04-21 01:57 39.85920 -104.69649 5367 ft 109 kts
2026-04-21 01:57 39.86882 -104.69638 5368 ft 165 kts
2026-04-21 01:57 39.88136 -104.69629 5649 ft 191 kts
2026-04-21 01:57 39.89480 -104.69554 6460 ft 195 kts
2026-04-21 01:58 39.90807 -104.69479 7310 ft 191 kts
2026-04-21 01:58 39.92201 -104.69469 7742 ft 214 kts
2026-04-21 01:58 39.93774 -104.69460 7933 ft 238 kts
2026-04-21 01:58 39.95520 -104.69441 8141 ft 262 kts
2026-04-21 01:59 39.97415 -104.69412 8427 ft 285 kts
2026-04-21 01:59 39.99432 -104.69375 9111 ft 293 kts
2026-04-21 01:59 40.01465 -104.69334 9686 ft 293 kts
2026-04-21 01:59 40.03502 -104.69331 9939 ft 294 kts 354°
2026-04-21 02:00 40.05467 -104.70078 10086 ft 300 kts 336°
2026-04-21 02:00 40.07473 -104.71205 10253 ft 326 kts 336°
2026-04-21 02:00 40.09641 -104.72410 10419 ft 350 kts 337°
2026-04-21 02:00 40.11931 -104.73604 10757 ft 365 kts 338°
2026-04-21 02:01 40.14321 -104.74816 11357 ft 370 kts 338°
2026-04-21 02:01 40.16727 -104.76031 12098 ft 371 kts 338°
2026-04-21 02:01 40.19143 -104.77256 12874 ft 373 kts 338°
2026-04-21 02:01 40.21571 -104.78494 13612 ft 375 kts 337°
2026-04-21 02:02 40.24017 -104.79745 14286 ft 378 kts 337°
2026-04-21 02:02 40.26480 -104.81008 14933 ft 382 kts 337°
2026-04-21 02:02 40.28971 -104.82286 15565 ft 386 kts 337°
2026-04-21 02:02 40.31448 -104.83558 16217 ft 389 kts 337°
2026-04-21 02:03 40.33980 -104.84859 16857 ft 393 kts 337°
2026-04-21 02:03 40.36541 -104.86172 17502 ft 397 kts 337°
2026-04-21 02:03 40.39121 -104.87495 18122 ft 401 kts 337°
2026-04-21 02:03 40.41736 -104.88838 18696 ft 404 kts 337°
2026-04-21 02:04 40.44367 -104.90190 19263 ft 407 kts 337°
2026-04-21 02:04 40.47016 -104.91553 19826 ft 410 kts 337°
2026-04-21 02:04 40.49682 -104.92925 20365 ft 413 kts 336°
2026-04-21 02:04 40.52372 -104.94312 20906 ft 416 kts 336°
2026-04-21 02:05 40.55043 -104.95690 21416 ft 419 kts 336°
2026-04-21 02:05 40.57761 -104.97094 21925 ft 422 kts 336°
2026-04-21 02:05 40.60499 -104.98509 22439 ft 424 kts 336°
2026-04-21 02:05 40.63262 -104.99938 22941 ft 426 kts 336°
2026-04-21 02:06 40.66028 -105.01370 23451 ft 428 kts 336°
2026-04-21 02:06 40.68810 -105.02811 23862 ft 431 kts 336°
2026-04-21 02:06 40.71609 -105.04263 24243 ft 433 kts 336°
2026-04-21 02:06 40.74418 -105.05740 24619 ft 435 kts 334°
2026-04-21 02:07 40.76988 -105.07818 24973 ft 434 kts 318°
2026-04-21 02:07 40.79015 -105.10693 25372 ft 434 kts 308°
2026-04-21 02:07 40.80889 -105.13826 25755 ft 435 kts 307°
2026-04-21 02:07 40.82745 -105.17001 26089 ft 438 kts 307°
2026-04-21 02:08 40.84615 -105.20208 26425 ft 441 kts 307°
2026-04-21 02:08 40.86498 -105.23419 26776 ft 443 kts 307°
2026-04-21 02:08 40.88393 -105.26631 27137 ft 444 kts 308°
2026-04-21 02:08 40.90303 -105.29853 27465 ft 446 kts 308°
2026-04-21 02:09 40.92222 -105.33079 27789 ft 448 kts 308°
2026-04-21 02:09 40.94155 -105.36325 28110 ft 450 kts 308°
2026-04-21 02:09 40.96091 -105.39577 28487 ft 450 kts 308°
2026-04-21 02:09 40.98022 -105.42823 28995 ft 447 kts 308°
2026-04-21 02:10 40.99944 -105.46058 29543 ft 444 kts 308°
2026-04-21 02:10 41.01846 -105.49264 30066 ft 442 kts 308°
2026-04-21 02:10 41.03743 -105.52466 30461 ft 441 kts 309°
2026-04-21 02:10 41.05610 -105.55620 30870 ft 439 kts 309°
2026-04-21 02:11 41.07495 -105.58808 31299 ft 437 kts 309°
2026-04-21 02:11 41.09365 -105.61975 31719 ft 435 kts 309°
2026-04-21 02:11 41.11228 -105.65132 32136 ft 434 kts 309°
2026-04-21 02:11 41.13083 -105.68278 32547 ft 432 kts 309°
2026-04-21 02:12 41.14931 -105.71417 32945 ft 430 kts 309°
2026-04-21 02:12 41.16767 -105.74538 33350 ft 428 kts 309°
2026-04-21 02:12 41.18599 -105.77655 33759 ft 426 kts 309°
2026-04-21 02:12 41.20419 -105.80756 34117 ft 425 kts 309°
2026-04-21 02:13 41.22248 -105.83873 34108 ft 430 kts 309°
2026-04-21 02:13 41.25894 -105.90100 34106 ft 428 kts 309°
2026-04-21 02:14 41.29515 -105.96298 34095 ft 422 kts 309°
2026-04-21 02:14 41.33116 -106.02471 34073 ft 422 kts 309°
2026-04-21 02:15 41.36712 -106.08650 34046 ft 422 kts 308°
2026-04-21 02:15 41.40302 -106.14833 34021 ft 422 kts 308°
2026-04-21 02:16 41.43863 -106.20975 34021 ft 422 kts 308°
2026-04-21 02:16 41.47800 -106.26766 34028 ft 421 kts 320°
2026-04-21 02:17 41.52371 -106.31686 34013 ft 422 kts 321°
2026-04-21 02:17 41.56923 -106.36575 33994 ft 423 kts 321°
2026-04-21 02:18 41.61489 -106.41537 33991 ft 423 kts 320°
2026-04-21 02:18 41.66052 -106.46535 33985 ft 424 kts 320°
2026-04-21 02:19 41.70606 -106.51543 33980 ft 424 kts 320°
2026-04-21 02:19 41.75165 -106.56567 33959 ft 424 kts 320°
2026-04-21 02:20 41.79721 -106.61597 33950 ft 424 kts 320°
2026-04-21 02:20 41.84271 -106.66628 33952 ft 424 kts 320°
2026-04-21 02:21 41.88789 -106.71634 33940 ft 424 kts 320°
2026-04-21 02:21 41.93337 -106.76682 33947 ft 423 kts 320°
2026-04-21 02:22 41.97878 -106.81733 33950 ft 423 kts 320°
2026-04-21 02:22 42.02412 -106.86786 33948 ft 423 kts 320°
2026-04-21 02:23 42.06942 -106.91843 33941 ft 423 kts 320°
2026-04-21 02:23 42.11442 -106.96877 33929 ft 423 kts 320°
2026-04-21 02:24 42.15968 -107.01950 33911 ft 423 kts 320°
2026-04-21 02:24 42.20494 -107.07032 33924 ft 423 kts 320°
2026-04-21 02:25 42.25016 -107.12119 33911 ft 423 kts 319°
2026-04-21 02:25 42.29519 -107.17195 33912 ft 424 kts 320°
2026-04-21 02:26 42.34046 -107.22308 33913 ft 424 kts 319°
2026-04-21 02:26 42.38573 -107.27432 33915 ft 424 kts 319°
2026-04-21 02:27 42.43067 -107.32526 33907 ft 423 kts 319°
2026-04-21 02:27 42.46849 -107.36823 33915 ft 423 kts 319°
2026-04-21 02:28 42.52073 -107.42767 33918 ft 422 kts 319°
2026-04-21 02:28 42.55814 -107.47033 33916 ft 422 kts 319°
2026-04-21 02:29 42.60302 -107.52160 33915 ft 422 kts 319°
2026-04-21 02:29 42.64795 -107.57302 33915 ft 421 kts 319°
2026-04-21 02:30 42.69272 -107.62437 33909 ft 420 kts 319°
2026-04-21 02:30 42.73716 -107.67542 33910 ft 420 kts 319°
2026-04-21 02:31 42.78169 -107.72669 33898 ft 419 kts 319°
2026-04-21 02:31 42.82637 -107.77823 33896 ft 419 kts 319°
2026-04-21 02:32 42.87055 -107.82929 33896 ft 418 kts 319°
2026-04-21 02:32 42.91499 -107.88075 33890 ft 418 kts 319°
2026-04-21 02:33 42.95933 -107.93220 33886 ft 418 kts 319°
2026-04-21 02:33 43.00364 -107.98371 33884 ft 418 kts 319°
2026-04-21 02:34 43.04759 -108.03491 33900 ft 417 kts 319°
2026-04-21 02:34 43.09177 -108.08647 33918 ft 417 kts 319°
2026-04-21 02:35 43.13590 -108.13808 33934 ft 417 kts 319°
2026-04-21 02:35 43.18004 -108.18980 33944 ft 417 kts 319°
2026-04-21 02:36 43.22416 -108.24159 33947 ft 417 kts 319°
2026-04-21 02:36 43.26827 -108.29348 33942 ft 417 kts 318°
2026-04-21 02:37 43.31204 -108.34508 33931 ft 417 kts 318°
2026-04-21 02:37 43.35611 -108.39713 33920 ft 417 kts 318°
2026-04-21 02:38 43.40013 -108.44922 33906 ft 417 kts 318°
2026-04-21 02:38 43.44415 -108.50142 33922 ft 417 kts 318°
2026-04-21 02:39 43.48783 -108.55331 33935 ft 417 kts 318°
2026-04-21 02:39 43.53182 -108.60568 33935 ft 417 kts 318°
2026-04-21 02:40 43.57578 -108.65813 33927 ft 417 kts 318°
2026-04-21 02:40 43.61961 -108.71051 33938 ft 416 kts 317°
2026-04-21 02:41 43.66344 -108.76299 33945 ft 417 kts 317°
2026-04-21 02:41 43.70689 -108.81514 33939 ft 417 kts 317°
2026-04-21 02:42 43.75064 -108.86774 33942 ft 416 kts 317°
2026-04-21 02:42 43.79433 -108.92039 33944 ft 416 kts 317°
2026-04-21 02:43 43.83792 -108.97301 33965 ft 415 kts 317°
2026-04-21 02:43 43.88150 -109.02574 33978 ft 415 kts 317°
2026-04-21 02:44 43.92483 -109.07825 33980 ft 416 kts 317°
2026-04-21 02:44 43.96839 -109.13117 33987 ft 416 kts 317°
2026-04-21 02:45 44.01195 -109.18419 33996 ft 416 kts 317°
2026-04-21 02:45 44.05555 -109.23736 34003 ft 417 kts 316°
2026-04-21 02:46 44.09915 -109.29064 34009 ft 417 kts 316°
2026-04-21 02:46 44.14268 -109.34395 34015 ft 417 kts 316°
2026-04-21 02:47 44.18602 -109.39713 34024 ft 416 kts 316°
2026-04-21 02:47 44.22948 -109.45056 34021 ft 417 kts 316°
2026-04-21 02:48 44.27297 -109.50415 34024 ft 417 kts 316°
2026-04-21 02:48 44.31639 -109.55776 34028 ft 416 kts 316°
2026-04-21 02:49 44.35977 -109.61143 34026 ft 416 kts 316°
2026-04-21 02:49 44.40285 -109.66483 34041 ft 416 kts 316°
2026-04-21 02:50 44.44620 -109.71868 34053 ft 415 kts 316°
2026-04-21 02:50 44.48934 -109.77239 34046 ft 415 kts 316°
2026-04-21 02:51 44.53251 -109.82623 34056 ft 414 kts 316°
2026-04-21 02:51 44.57524 -109.87964 34042 ft 414 kts 316°
2026-04-21 02:52 44.61816 -109.93341 34056 ft 413 kts 315°
2026-04-21 02:52 44.66106 -109.98725 34062 ft 414 kts 315°
2026-04-21 02:53 44.70397 -110.04123 34071 ft 414 kts 315°
2026-04-21 02:53 44.74692 -110.09536 34067 ft 415 kts 315°
2026-04-21 02:54 44.78989 -110.14962 34067 ft 414 kts 315°
2026-04-21 02:54 44.83249 -110.20354 34068 ft 413 kts 315°
2026-04-21 02:55 44.87515 -110.25764 34059 ft 414 kts 315°
2026-04-21 02:55 44.91798 -110.31208 34063 ft 414 kts 315°
2026-04-21 02:56 44.96085 -110.36669 34044 ft 415 kts 315°
2026-04-21 02:56 45.02514 -110.44878 34050 ft 416 kts 315°
2026-04-21 02:57 45.06806 -110.50373 34040 ft 416 kts 315°
2026-04-21 02:57 45.11061 -110.55832 34037 ft 415 kts 314°
2026-04-21 02:58 45.15339 -110.61332 34033 ft 415 kts 314°
2026-04-21 02:58 45.19618 -110.66846 34026 ft 415 kts 314°
2026-04-21 02:59 45.23898 -110.72371 34018 ft 416 kts 314°
2026-04-21 02:59 45.28177 -110.77908 34019 ft 416 kts 314°
2026-04-21 03:00 45.32431 -110.83425 34000 ft 416 kts 314°
2026-04-21 03:00 45.36695 -110.88964 34002 ft 413 kts 314°
2026-04-21 03:01 45.40940 -110.94493 33996 ft 413 kts 314°
2026-04-21 03:01 45.45187 -111.00035 33990 ft 414 kts 313°
2026-04-21 03:02 45.49441 -111.05600 33964 ft 415 kts 313°
2026-04-21 03:02 45.53663 -111.11132 33961 ft 415 kts 313°
2026-04-21 03:03 45.57914 -111.16716 33937 ft 415 kts 313°
2026-04-21 03:03 45.62164 -111.22309 33934 ft 415 kts 313°
2026-04-21 03:04 45.66405 -111.27903 33933 ft 414 kts 313°
2026-04-21 03:04 45.70637 -111.33498 33921 ft 414 kts 313°
2026-04-21 03:05 45.74861 -111.39093 33928 ft 413 kts 313°
2026-04-21 03:05 45.79067 -111.44678 33919 ft 412 kts 313°
2026-04-21 03:06 45.83267 -111.50266 33917 ft 412 kts 313°
2026-04-21 03:06 45.87460 -111.55857 33907 ft 411 kts 313°
2026-04-21 03:07 45.91623 -111.61420 33891 ft 411 kts 313°
2026-04-21 03:07 45.95810 -111.67027 33885 ft 411 kts 312°
2026-04-21 03:08 46.00001 -111.72652 33891 ft 412 kts 312°
2026-04-21 03:08 46.04199 -111.78300 33896 ft 412 kts 312°
2026-04-21 03:09 46.08366 -111.83916 33905 ft 413 kts 312°
2026-04-21 03:09 46.12564 -111.89588 33904 ft 414 kts 312°
2026-04-21 03:10 46.16772 -111.95285 33798 ft 417 kts 312°
2026-04-21 03:10 46.18892 -111.98162 33274 ft 420 kts 312°
2026-04-21 03:10 46.21019 -112.01049 32803 ft 417 kts 312°
2026-04-21 03:11 46.23134 -112.03922 32384 ft 418 kts 312°
2026-04-21 03:11 46.25230 -112.06774 32015 ft 420 kts 312°
2026-04-21 03:11 46.27369 -112.09688 31641 ft 422 kts 312°
2026-04-21 03:11 46.29506 -112.12603 31267 ft 423 kts 312°
2026-04-21 03:12 46.31647 -112.15526 30911 ft 424 kts 312°
2026-04-21 03:12 46.33796 -112.18462 30536 ft 425 kts 312°
2026-04-21 03:12 46.35947 -112.21405 30199 ft 426 kts 312°
2026-04-21 03:12 46.38109 -112.24367 29810 ft 428 kts 313°
2026-04-21 03:13 46.40275 -112.27338 29398 ft 429 kts 312°
2026-04-21 03:13 46.42490 -112.30250 28982 ft 433 kts 318°
2026-04-21 03:13 46.44977 -112.32705 28580 ft 430 kts 323°
2026-04-21 03:13 46.47477 -112.34949 28190 ft 424 kts 323°
2026-04-21 03:14 46.49938 -112.37268 27794 ft 421 kts 321°
2026-04-21 03:14 46.52340 -112.39704 27399 ft 419 kts 320°
2026-04-21 03:14 46.54709 -112.42180 27009 ft 417 kts 319°
2026-04-21 03:14 46.57057 -112.44651 26636 ft 416 kts 319°
2026-04-21 03:15 46.59403 -112.47125 26266 ft 415 kts 319°
2026-04-21 03:15 46.61741 -112.49594 25891 ft 414 kts 319°
2026-04-21 03:15 46.63283 -112.51223 25714 ft 412 kts 319°
2026-04-21 03:15 46.66348 -112.54455 25394 ft 408 kts 319°
2026-04-21 03:16 46.68646 -112.56875 25150 ft 406 kts 319°
2026-04-21 03:16 46.70935 -112.59279 24919 ft 405 kts 319°
2026-04-21 03:16 46.72481 -112.60902 24763 ft 405 kts 319°
2026-04-21 03:16 46.74737 -112.63267 24528 ft 405 kts 319°
2026-04-21 03:17 46.77029 -112.65669 24294 ft 406 kts 319°
2026-04-21 03:17 46.79322 -112.68069 24067 ft 406 kts 319°
2026-04-21 03:17 46.81634 -112.70486 23838 ft 406 kts 319°
2026-04-21 03:17 46.83938 -112.72894 23616 ft 407 kts 319°
2026-04-21 03:18 46.86242 -112.75300 23382 ft 407 kts 319°
2026-04-21 03:18 46.88547 -112.77707 23093 ft 407 kts 319°
2026-04-21 03:18 46.90849 -112.80111 22825 ft 405 kts 319°
2026-04-21 03:18 46.93111 -112.82476 22573 ft 404 kts 319°
2026-04-21 03:19 46.95401 -112.84872 22305 ft 403 kts 319°
2026-04-21 03:19 46.97682 -112.87264 22045 ft 402 kts 319°
2026-04-21 03:19 46.99954 -112.89648 21787 ft 401 kts 319°
2026-04-21 03:19 47.02217 -112.92024 21528 ft 400 kts 319°
2026-04-21 03:20 47.04480 -112.94398 21274 ft 398 kts 319°
2026-04-21 03:20 47.06709 -112.96737 21021 ft 397 kts 319°
2026-04-21 03:20 47.08953 -112.99094 20744 ft 395 kts 319°
2026-04-21 03:20 47.11176 -113.01436 20516 ft 393 kts 319°
2026-04-21 03:21 47.13400 -113.03781 20263 ft 391 kts 319°
2026-04-21 03:21 47.15612 -113.06114 20030 ft 390 kts 319°
2026-04-21 03:21 47.17818 -113.08440 19774 ft 390 kts 319°
2026-04-21 03:21 47.20026 -113.10766 19538 ft 390 kts 319°
2026-04-21 03:22 47.22201 -113.13059 19311 ft 389 kts 319°
2026-04-21 03:22 47.24397 -113.15374 19076 ft 388 kts 319°
2026-04-21 03:22 47.26592 -113.17689 18846 ft 388 kts 319°
2026-04-21 03:22 47.28779 -113.19999 18606 ft 386 kts 319°
2026-04-21 03:23 47.30956 -113.22299 18379 ft 384 kts 319°
2026-04-21 03:23 47.33130 -113.24595 18148 ft 383 kts 319°
2026-04-21 03:23 47.35293 -113.26881 17890 ft 382 kts 319°
2026-04-21 03:23 47.37451 -113.29161 17619 ft 380 kts 319°
2026-04-21 03:24 47.39601 -113.31435 17359 ft 379 kts 319°
2026-04-21 03:24 47.41733 -113.33688 17095 ft 376 kts 319°
2026-04-21 03:24 47.43858 -113.35932 16849 ft 375 kts 319°
2026-04-21 03:24 47.45977 -113.38169 16588 ft 373 kts 319°
2026-04-21 03:25 47.48086 -113.40398 16321 ft 371 kts 319°
2026-04-21 03:25 47.50157 -113.42585 16072 ft 369 kts 319°
2026-04-21 03:25 47.52248 -113.44790 15824 ft 367 kts 320°
2026-04-21 03:25 47.54325 -113.46981 15588 ft 366 kts 320°
2026-04-21 03:26 47.56395 -113.49163 15328 ft 364 kts 319°
2026-04-21 03:26 47.58458 -113.51327 15114 ft 365 kts 319°
2026-04-21 03:26 47.60527 -113.53496 15038 ft 361 kts 320°
2026-04-21 03:26 47.62576 -113.55647 15051 ft 361 kts 320°
2026-04-21 03:27 47.64623 -113.57796 15028 ft 360 kts 320°
2026-04-21 03:27 47.66636 -113.59902 14999 ft 346 kts 320°
2026-04-21 03:27 47.68564 -113.61904 15019 ft 331 kts 320°
2026-04-21 03:27 47.70389 -113.63780 14965 ft 316 kts 320°
2026-04-21 03:28 47.72190 -113.65624 14604 ft 313 kts 319°
2026-04-21 03:28 47.73963 -113.67491 14265 ft 311 kts 319°
2026-04-21 03:28 47.75726 -113.69367 13911 ft 310 kts 319°
2026-04-21 03:28 47.77481 -113.71241 13529 ft 308 kts 319°
2026-04-21 03:29 47.79174 -113.73052 13134 ft 300 kts 319°
2026-04-21 03:29 47.80850 -113.74850 12761 ft 295 kts 319°
2026-04-21 03:29 47.82514 -113.76646 12377 ft 295 kts 319°
2026-04-21 03:29 47.84171 -113.78451 12060 ft 294 kts 319°
2026-04-21 03:30 47.85798 -113.80236 12013 ft 286 kts 319°
2026-04-21 03:30 47.87392 -113.81990 12019 ft 284 kts 319°
2026-04-21 03:30 47.88962 -113.83719 12005 ft 277 kts 319°
2026-04-21 03:30 47.90489 -113.85396 12001 ft 269 kts 319°
2026-04-21 03:31 47.91980 -113.87028 12006 ft 264 kts 319°
2026-04-21 03:31 47.93464 -113.88652 12013 ft 262 kts 319°
2026-04-21 03:31 47.94910 -113.90232 11986 ft 251 kts 319°
2026-04-21 03:31 47.96287 -113.91730 12023 ft 239 kts 319°
2026-04-21 03:32 47.97609 -113.93161 12035 ft 232 kts 319°
2026-04-21 03:32 47.98932 -113.94595 12029 ft 239 kts 319°
2026-04-21 03:32 48.00281 -113.96068 11753 ft 250 kts 319°
2026-04-21 03:32 48.01665 -113.97657 11414 ft 249 kts 312°
2026-04-21 03:33 48.02795 -113.99582 11062 ft 242 kts 303°
2026-04-21 03:33 48.03773 -114.01616 10721 ft 238 kts 301°
2026-04-21 03:33 48.04707 -114.03629 10396 ft 233 kts 300°
2026-04-21 03:33 48.05555 -114.05676 10071 ft 231 kts 297°
2026-04-21 03:34 48.06368 -114.07748 9735 ft 231 kts 297°
2026-04-21 03:34 48.07174 -114.09823 9377 ft 229 kts 297°
2026-04-21 03:34 48.07966 -114.11871 9024 ft 225 kts 297°
2026-04-21 03:34 48.08735 -114.13875 8660 ft 220 kts 297°
2026-04-21 03:35 48.09480 -114.15830 8308 ft 217 kts 297°
2026-04-21 03:35 48.10218 -114.17779 7951 ft 213 kts 297°
2026-04-21 03:35 48.10942 -114.19704 7611 ft 210 kts 297°
2026-04-21 03:35 48.11651 -114.21611 7263 ft 208 kts 297°
2026-04-21 03:36 48.12345 -114.23497 6926 ft 206 kts 297°
2026-04-21 03:36 48.13021 -114.25347 6606 ft 198 kts 297°
2026-04-21 03:36 48.13658 -114.27096 6354 ft 189 kts 297°
2026-04-21 03:36 48.14282 -114.28815 6111 ft 188 kts 297°
2026-04-21 03:37 48.14909 -114.30549 5903 ft 189 kts 297°
2026-04-21 03:37 48.15537 -114.32292 5799 ft 191 kts 297°
2026-04-21 03:37 48.16188 -114.34043 5804 ft 193 kts 300°
2026-04-21 03:37 48.17134 -114.35461 5786 ft 195 kts 325°
2026-04-21 03:38 48.18328 -114.36481 5570 ft 200 kts 338°
2026-04-21 03:38 48.19698 -114.36487 5326 ft 201 kts 16°
2026-04-21 03:38 48.20969 -114.35723 5052 ft 193 kts 25°
2026-04-21 03:38 48.22118 -114.34794 4822 ft 183 kts 28°
2026-04-21 03:39 48.23153 -114.33807 4592 ft 169 kts 33°
2026-04-21 03:39 48.24085 -114.32834 4336 ft 160 kts 35°
2026-04-21 03:39 48.24984 -114.31893 4136 ft 157 kts 36°
2026-04-21 03:39 48.25884 -114.30949 3932 ft 158 kts 36°
2026-04-21 03:40 48.26771 -114.30020 3734 ft 157 kts 34°
2026-04-21 03:40 48.27658 -114.29079 3525 ft 155 kts 34°
2026-04-21 03:40 48.28534 -114.28164 3316 ft 152 kts 32°
2026-04-21 03:40 48.29403 -114.27262 3101 ft 151 kts 33°
2026-04-21 03:41 48.30257 -114.26373 2973 ft 144 kts 32°
2026-04-21 03:41 48.30991 -114.25607 2958 ft 108 kts 34°
2026-04-21 03:41 48.31196 -114.25304 2968 ft 13 kts 89°
2026-04-21 03:41 48.31193 -114.25244 2970 ft 3 kts 109°
2026-04-21 03:42 48.31177 -114.25231 2971 ft 3 kts 167°
2026-04-21 03:42 48.31159 -114.25234 2971 ft 3 kts 195°
2026-04-21 03:42 48.31125 -114.25259 2971 ft 10 kts 211°
2026-04-21 03:42 48.31046 -114.25335 2972 ft 17 kts 215°
2026-04-21 03:43 48.30936 -114.25453 2969 ft 21 kts 214°
2026-04-21 03:43 48.30848 -114.25540 2969 ft 9 kts 195°
2026-04-21 03:43 48.30799 -114.25488 2976 ft 9 kts 124°
2026-04-21 03:43 48.30772 -114.25412 2976 ft 4 kts 124°
2026-04-21 03:44 48.30762 -114.25390 2976 ft 2 kts 123°
2026-04-21 03:44 48.30754 -114.25373 2976 ft 0 kts 124°